This is the latest recevied weather packets stored in our database for station/object WD9U. If no packets are shown the sender has not sent any weather packets the latest 10 day(s).
| Time | Temp. | Humidity | Pressure | Rain* | Wind** | Luminosity | Snow |
|---|---|---|---|---|---|---|---|
| 1777984993 | 2.22° C | 61% | 1007.8 hPa | 0 mm | - | 108 W/m² | - |
| 1777984633 | 2.22° C | 63% | 1007.7 hPa | 0 mm | - | 68 W/m² | - |
| 1777984273 | 2.22° C | 61% | 1007.6 hPa | 0 mm | - | 56 W/m² | - |
| 1777983913 | 2.22° C | 64% | 1007.4 hPa | 0 mm | - | 44 W/m² | - |
| 1777983552 | 2.22° C | 63% | 1007.3 hPa | 0 mm | - | 44 W/m² | - |
| 1777983191 | 2.22° C | 62% | 1007.3 hPa | 0 mm | - | 41 W/m² | - |
| 1777982831 | 2.22° C | 62% | 1007.2 hPa | 0 mm | - | 49 W/m² | - |
| 1777982713 | 2.22° C | 63% | 1007.2 hPa | 0 mm | - | 50 W/m² | - |
| 1777982471 | 2.22° C | 63% | 1007.1 hPa | 0 mm | - | 48 W/m² | - |
| 1777982110 | 2.22° C | 63% | 1007 hPa | 0 mm | - | 44 W/m² | - |
| 1777981750 | 2.22° C | 65% | 1006.9 hPa | 0 mm | - | 41 W/m² | - |
| 1777981511 | 2.22° C | 65% | 1006.9 hPa | 0 mm | - | 40 W/m² | - |
| 1777981389 | 2.22° C | 66% | 1006.8 hPa | 0 mm | - | 40 W/m² | - |
| 1777981029 | 2.22° C | 67% | 1006.8 hPa | 0 mm | - | 39 W/m² | - |
| 1777980669 | 2.22° C | 66% | 1006.7 hPa | 0 mm | - | 34 W/m² | - |
| 1777980309 | 2.22° C | 64% | 1006.6 hPa | 0 mm | - | 17 W/m² | - |
| 1777979949 | 2.78° C | 63% | 1006.5 hPa | 0 mm | - | 18 W/m² | - |
| 1777979589 | 2.78° C | 66% | 1006.3 hPa | 0 mm | - | 13 W/m² | - |
| 1777979229 | 2.78° C | 70% | 1006.3 hPa | 0 mm | - | 16 W/m² | - |
| 1777979111 | 2.78° C | 70% | 1006.2 hPa | 0 mm | - | 13 W/m² | - |
| 1777978869 | 2.78° C | 70% | 1006.2 hPa | 0 mm | - | 10 W/m² | - |
| 1777978508 | 2.78° C | 70% | 1006.1 hPa | 0 mm | - | 6 W/m² | - |
| 1777978148 | 2.78° C | 71% | 1006.1 hPa | 0 mm | - | 3 W/m² | - |
| 1777977919 | 2.78° C | 70% | 1006 hPa | 0 mm | - | 3 W/m² | - |
| 1777977797 | 2.78° C | 71% | 1006.1 hPa | 0 mm | - | 2 W/m² | - |
* Rain latest hour (hover to see other rain measurements)
** Current wind speed in m/s (hover to see current wind gust speed)